Regional Weather Roundup
Issued by NWS

Home | Current Version | Previous Version | Text Only | Print | Product List | Glossary On
Versions: 1 2 3 4 5 6 7 8 9 10 11 12 13 14 15 16 17 18 19 20 21 22 23 24 25 26 27 28 29 30 31 32 33 34 35 36 37 38 39 40 41 42 43 44 45 46 47 48 49 50
000
ASUS44 KMEG 260310
RWRTN
TENNESSEE HOURLY STATE WEATHER ROUNDUP
NATIONAL WEATHER SERVICE MEMPHIS TN
1000 PM CDT SAT OCT 25 2014

TNZ002-004-019-021-049-052-054-088>092-260400-
WEST TENNESSEE

CITY           SKY/WX    TMP DP  RH WIND       PRES   REMARKS
MEMPHIS INTL   CLEAR     67  62  84 CALM      30.04S
NWS MEMPHIS      N/A     65 N/A N/A MISG        N/A
JACKSON        CLEAR     62  60  93 CALM      30.04S
DYERSBURG      CLEAR     63  54  72 CALM      30.04S
UNION CITY     CLEAR     59  59 100 CALM      30.02S
PARIS          CLEAR     57  55  94 CALM      30.04S
HUNTINGDON     CLEAR     60  58  93 CALM      30.04S
LEXINGTON      MOCLDY    63  61  94 CALM      30.03S VSB 1/4
SAVANNAH       CLEAR     61  61 100 CALM      30.05S
$$

TNZ008-025-027-028-033-062-065-066-260400-
NORTH MIDDLE TENNESSEE

CITY           SKY/WX    TMP DP  RH WIND       PRES   REMARKS
NASHVILLE      CLEAR     63  61  93 CALM      30.03S
CLARKSVILLE    CLEAR     59  58  96 CALM      30.02S FOG
SMYRNA         FOG       57  57 100 CALM      30.04S VSB 1/4
COOKEVILLE     MOCLDY    48  48 100 CALM      30.04S VSB 1/4
CROSSVILLE     CLEAR     55  52  89 W3        30.07R FOG
$$

TNZ061-075-076-078-094-096-097-260400-
SOUTH MIDDLE TENNESSEE

CITY           SKY/WX    TMP DP  RH WIND       PRES   REMARKS
FAYETTEVILLE   CLEAR     61  57  88 SW7G17    30.05S
TULLAHOMA      CLEAR     55  54  94 CALM      30.06S
WINCHESTER     CLEAR     55  55 100 CALM      30.06R
MCMINNVILLE    CLOUDY    55  55 100 CALM      30.05R VSB 0
COLUMBIA       CLEAR    N/A N/A N/A CALM      30.03S
SHELBYVILLE      N/A     57  57 100 CALM      30.05S VSB 1/2
$$

TNZ017-018-042-046-047-260400-
NORTHEAST TENNESSEE

CITY           SKY/WX    TMP DP  RH WIND       PRES   REMARKS
TRI CITIES     PTCLDY    54  48  80 CALM      30.01S
ELIZABETHTON   CLOUDY    57  46  67 W7        30.01F
$$

TNZ012-013-036-069-073-074-260400-
CENTRAL EAST TENNESSEE

CITY           SKY/WX    TMP DP  RH WIND       PRES   REMARKS
KNOXVILLE      CLEAR     58  49  72 S3        30.03S
OAK RIDGE      CLEAR     54  51  90 CALM      30.04S
GATLINBURG     CLEAR     54  50  87 CALM      30.03S
MORRISTOWN     CLEAR     57  50  77 SW6       30.03S
$$

TNZ083-085-099-260400-
SOUTHEAST TENNESSEE

CITY           SKY/WX    TMP DP  RH WIND       PRES   REMARKS
CHATTANOOGA    PTCLDY    61  57  87 CALM      30.04S
$$

SKY/WX REPORTED AS FAIR MEANS FEW OR NO CLOUDS BELOW
12 THOUSAND FEET.




USA.gov is the U.S. government's official web portal to all federal, state and local government web resources and services.